Powrót do katalogu

STARLINK-35069

AktywnyŁącznośćVLEO
NORAD 66268·PAYLOAD·🇺🇸 United States

Wystrzelony Oct 31, 2025 z Vandenberg Space Force Base

Loading…

Następne Przeloty (najbliższe 24 godziny)

TLE

ŚwieżeSource: CelesTrak SupGP

Epoka: Sep 15, 2026, 03:26 UTC

1 66268C 25247D   26258.14354167  .00036707  00000+0  10844-2 0  2581
2 66268  53.1607  28.4738 0001183  79.2436 217.4631 15.34376287    19

Śledź STARLINK-35069 w czasie rzeczywistym z AllMySat

Download on the App Store